Regional Weather Roundup
Issued by NWS

Home | Current Version | Previous Version | Text Only | Print | Product List | Glossary On
Versions: 1 2 3 4 5 6 7 8 9 10 11 12 13 14 15 16 17 18 19 20 21 22 23 24 25 26 27 28 29 30 31 32 33 34 35 36 37 38 39 40 41 42 43 44 45 46 47 48 49 50
000
ASUS45 KBOU 310507
RWRCO

WEATHER ROUNDUP FOR COLORADO
NATIONAL WEATHER SERVICE DENVER/BOULDER CO
1100 PM MDT SAT JUL 30 2016

NOTE: "FAIR" INDICATES FEW OR NO CLOUDS BELOW 12000 FEET WITH NO
SIGNIFICANT WEATHER AND/OR OBSTRUCTIONS TO VISIBILITY.

COZ001>005-013-030-031-310600-
...NORTHWEST COLORADO...

CITY           SKY/WX    TMP DP  RH WIND       PRES   REMARKS
CRAIG          FAIR      62  44  51 CALM      30.11R
HAYDEN         FAIR      63  43  48 N3        30.14R
MEEKER         FAIR      62  43  49 NE6       30.12R
MOUNT WERNER   NOT AVBL
STEAMBOAT SPGS FAIR      62  40  45 CALM      30.16R
WALDEN         FAIR      50  39  66 E3        30.27R
$$

COZ006>008-011-310600-
...WEST CENTRAL VALLEYS...

CITY           SKY/WX    TMP DP  RH WIND       PRES   REMARKS
GRAND JUNCTION FAIR      80  40  23 SE7       29.95R
MONTROSE       FAIR      73  42  32 SE10      30.07S
EAGLE          FAIR      75  37  25 S3        30.14S
RIFLE          FAIR      75  40  28 SE9       30.02F
DELTA          NOT AVBL
NUCLA          NOT AVBL
$$

COZ017>023-064>068-310600-
...SOUTHWEST COLORADO...

CITY           SKY/WX    TMP DP  RH WIND       PRES   REMARKS
DURANGO        FAIR      62  48  60 N5        30.21R
CORTEZ         TSTM      75  51  43 SW12G23   30.16R
PAGOSA SPRINGS FAIR      62  40  44 CALM      30.29R
TELLURIDE      CLOUDY    58  47  66 SE6       30.39S
WOLF CREEK PAS FAIR      48  36  61 SW14      30.62R
$$

COZ009-010-012-014-032>034-037-058>063-310600-
...CENTRAL COLORADO...

CITY           SKY/WX    TMP DP  RH WIND       PRES   REMARKS
ASPEN          MOCLDY    64  43  46 SW6       30.22S
BUENA VISTA    CLOUDY    62  47  58 W3        30.30R
COPPER MTN     MOCLDY    59  28  31 NW12      30.59F
BERTHOUD PASS  CLOUDY    46  32  57 E12       30.63S
COTTONWOOD PAS CLOUDY    61  39  44 CALM      30.44R
GUNNISON       FAIR      57  39  51 N6        30.27S
KREMMLING      FAIR      63  32  31 CALM      30.22R
LEADVILLE      FAIR      55  35  47 E6        30.41S
MONARCH PASS   FAIR      52  34  50 MISG      30.69S
SALIDA         FAIR      64  47  53 SE5       30.33R
SUNLIGHT       FAIR      59  32  36 MISG      30.50F
WILKERSON PASS FAIR      54  32  43 S6        30.56F
$$

COZ069>075-310600-
...SAN LUIS VALLEY/SANGRE DE CRISTO MOUNTAINS...

CITY           SKY/WX    TMP DP  RH WIND       PRES   REMARKS
ALAMOSA          N/A    N/A N/A N/A MISG      30.27R
LA VETA PASS   FAIR      50  41  71 S8G17     30.46S
SAGUACHE       FAIR      57  43  58 NE10      30.30S
$$

COZ035-036-038>040-310600-
...NORTHERN COLORADO FRONT RANGE...

CITY           SKY/WX    TMP DP  RH WIND       PRES   REMARKS
DENVER INTL AP FAIR      76  45  33 SW10      30.01S
DMNS CITY PARK   N/A     72  49  44 S2        30.00F
AURORA         NOT AVBL
FRONT RANGE AP NOT AVBL
ERIE MUNI ARPT FAIR      69  51  53 SW6       29.99F
BOULDER MUN AP FAIR      77  50  38 SW6       30.00S
CENTENNIAL     FAIR      73  43  33 SW14      30.05F
BROOMFIELD     NOT AVBL
LONGMONT       NOT AVBL
$$

COZ041-046-047-076>085-087-088-310600-
...PIKES PEAK/PALMER DIVIDE AND SOUTHERN FOOTHILLS...

CITY           SKY/WX    TMP DP  RH WIND       PRES   REMARKS
COLO. SPRINGS  FAIR      69  48  47 SE6       30.11F
A. F. ACADEMY  FAIR      66  41  39 W3        30.11S
SCHRIEVER AFB  NOT AVBL
ELLICOTT       NOT AVBL
FALCON         FAIR      63  48  58 NE6       30.16
FORT CARSON    NOT AVBL
LIMON          FAIR      69  47  45 VRB5      30.03S
MONUMENT HILL  FAIR      68  41  37 CALM      30.17S
TRINIDAD       NOT AVBL
$$

COZ042>045-048>051-090-091-310600-
...NORTHEAST COLORADO...

CITY           SKY/WX    TMP DP  RH WIND       PRES   REMARKS
GREELEY ARPT   FAIR      70  63  78 NW5       29.98R
AKRON          FAIR      69  61  75 SE8       29.98S
BURLINGTON     FAIR      74  64  71 SE17      29.94F
WRAY           FAIR      73  61  64 E8        29.93F
STERLING       NOT AVBL
HOLYOKE        NOT AVBL
FORT MORGAN    NOT AVBL
$$

COZ086-089-092>099-310600-
...SOUTHEAST COLORADO...

CITY           SKY/WX    TMP DP  RH WIND       PRES   REMARKS
PUEBLO         FAIR      75  49  39 VRB5      30.01S
LA JUNTA       FAIR      72  54  53 SW7       29.99S
LAMAR          FAIR      80  50  34 SW21G29   29.90S
SPRINGFIELD      N/A     76  47  35 SW17G28   29.96R
$$



USA.gov is the U.S. government's official web portal to all federal, state and local government web resources and services.